Ketchikan, AK

4:51 PM AKDT on September 24, 2018 (GMT -0800)
Ketchikan International

Weather History for PAKT - July, 2018

Change the Weather History Date:

Friday, July 27, 2018

  Actual Average Record
Temperature  
Mean Temperature 74 °F -  
Max Temperature 84 °F 64 °F 86 °F (1971)
Min Temperature 66 °F 52 °F 45 °F (1950)
Cooling Degree Days 9    
Growing Degree Days 24 (Base 50)    
Moisture  
Dew Point 58 °F    
Average Humidity 59    
Maximum Humidity 76    
Minimum Humidity 42    
Precipitation  
Precipitation 0.00 in - - ()
Sea Level Pressure  
Sea Level Pressure 30.11 in    
Wind  
Wind Speed 12 mph (NW)    
Max Wind Speed 17 mph    
Max Gust Speed 24 mph    
Visibility 10 miles    
Events      
Averages and records for this station are not official NWS values.
T = Trace of Precipitation, MM = Missing Value Source: NWS Daily Summary

Daily Weather History Graph

Daily Weather History Graph

Search for Another Location

Airport or City:

Astronomy

Jul. 27, 2018 Rise Set
Actual Time 4:45 AM AKDT 9:00 PM AKDT
Civil Twilight 3:56 AM AKDT 9:48 PM AKDT
Nautical Twilight 2:41 AM AKDT 11:02 PM AKDT
Astronomical Twilight 1:25 AM AKDT 12:20 AM AKDT
Moon 9:04 PM AKDT (7/27) 4:34 AM AKDT (7/27)
Length of Visible Light 17h 52m
Length of Day
16h 14m
Full, 100% of the Moon is Illuminated
Jul 27
Full
Jul 27
Full
Aug 4
Last Quarter
Aug 11
New
Aug 17
First Quarter

Hourly Weather History & Observations

Time (AKDT) Temp. Heat Index Dew Point Humidity Pressure Visibility Wind Dir Wind Speed Gust Speed Precip Events Conditions
12:53 AM 68.0 °F - 59.0 °F 73% 30.16 in 10.0 mi NNW 10.4 mph - N/A   Clear
1:53 AM 66.9 °F - 59.0 °F 76% 30.16 in 10.0 mi NNW 13.8 mph - N/A   Clear
2:53 AM 66.9 °F - 59.0 °F 76% 30.16 in 10.0 mi NW 9.2 mph - N/A   Clear
3:53 AM 66.9 °F - 57.9 °F 73% 30.16 in 10.0 mi NW 8.1 mph - N/A   Clear
4:53 AM 66.0 °F - 57.9 °F 75% 30.16 in 10.0 mi NW 8.1 mph - N/A   Clear
5:53 AM 66.0 °F - 57.9 °F 75% 30.16 in 10.0 mi NW 6.9 mph - N/A   Clear
6:53 AM 69.1 °F - 59.0 °F 70% 30.15 in 10.0 mi NNW 11.5 mph - N/A   Clear
7:53 AM 71.6 °F - 59.0 °F 64% 30.14 in 10.0 mi NW 15.0 mph - N/A   Clear
8:53 AM 73.4 °F - 59.0 °F 61% 30.14 in 10.0 mi NW 16.1 mph - N/A   Partly Cloudy
9:53 AM 73.4 °F - 59.0 °F 61% 30.14 in 10.0 mi NW 13.8 mph 20.7 mph N/A   Clear
10:53 AM 75.2 °F - 59.0 °F 57% 30.13 in 10.0 mi NW 13.8 mph 21.9 mph N/A   Clear
11:53 AM 79.0 °F - 59.0 °F 50% 30.12 in 10.0 mi NW 11.5 mph 20.7 mph N/A   Clear
12:53 PM 80.6 °F 80.8 °F 57.2 °F 45% 30.12 in 10.0 mi NW 16.1 mph 24.2 mph N/A   Clear
1:53 PM 78.8 °F - 59.0 °F 51% 30.10 in 10.0 mi NNW 17.3 mph - N/A   Clear
2:53 PM 80.6 °F 81.5 °F 60.8 °F 51% 30.09 in 10.0 mi NNW 16.1 mph - N/A   Clear
3:53 PM 80.6 °F 81.5 °F 60.8 °F 51% 30.08 in 10.0 mi NNW 17.3 mph - N/A   Clear
4:53 PM 82.4 °F 82.0 °F 57.2 °F 42% 30.07 in 10.0 mi NW 13.8 mph - N/A   Clear
5:53 PM 82.4 °F 82.0 °F 57.2 °F 42% 30.06 in 10.0 mi NNW 16.1 mph - N/A   Clear
6:53 PM 82.4 °F 82.0 °F 57.2 °F 42% 30.06 in 10.0 mi NW 11.5 mph 20.7 mph N/A   Clear
7:53 PM 78.8 °F - 57.2 °F 47% 30.05 in 10.0 mi NW 13.8 mph - N/A   Clear
8:53 PM 75.0 °F - 57.0 °F 53% 30.06 in 10.0 mi NW 13.8 mph 21.9 mph N/A   Clear
9:53 PM 73.9 °F - 57.0 °F 55% 30.06 in 10.0 mi WNW 12.7 mph 19.6 mph N/A   Clear
10:53 PM 72.0 °F - 57.0 °F 59% 30.07 in 10.0 mi NW 15.0 mph - N/A   Clear
11:53 PM 71.1 °F - 57.0 °F 61% 30.07 in 10.0 mi NW 13.8 mph 21.9 mph N/A   Clear